COSMOS 1275 DEB

Satellite information

Favourite Embed

Satellite Type and Status

DEBRISIN ORBIT

Key statistics

Satellite COSMOS 1275 DEB at a glance.

Uptime

16164

Days in orbit

Revolutions

≈ 13.7

Per day

Orbit

LEO

Low Earth Orbit

Inclination

83.0

Latest

Satellite identification and parameters

Extended collection of information and parameters for COSMOS 1275 DEB.

Object identification

Identified? True

Debris? True

Object name: COSMOS 1275 DEB

International designator: 1981-053DK

Object number (NORAD): 12766

Object ID (CCSDS): 12766

Country: COMMONWEALTH OF INDEPENDENT STATES (CIS)

Current information (Y/N): Y

RCS size: SMALL

Orbital parameters

Period: 105.111 minutes

Inclination: 82.951 deg

SMA: 7377.767 km

Apoapsis: 1070.853 km

Periapsis: 928.412 km

RAAN: 329.43 deg

Eccentricy: 0.00965341

Argument of periapsis: 356.7771 deg

Mean anomaly: 181.2427 deg

Mean motion: 13.69983461 rev/day

Mean motion (dot): 0.00000217 rev/day2

B* drag term: 0.00022266744 1/REarth

Two-line elements (TLE)

Creation date: Sept. 3, 2025, 10:15 a.m.

Reference frame: TEME

Reference center: EARTH

Epoch: Sept. 2, 2025, 11:26 p.m. UTC

TLE line 0: 0 COSMOS 1275 DEB

TLE line 1: 1 12766U 81053DK 25245.97646266 .00000217 00000-0 22267-3 0 9995

TLE line 2: 2 12766 82.9510 329.4300 0096534 356.7771 181.2427 13.69983461192516

Live tracking on map

Real-time ground track for satellite COSMOS 1275 DEB.

In-orbit conjunctions

A list of the most updated potential collisions computed for object COSMOS 1275 DEB.

Target Orbit TCA Probability of collision Miss distance Type
THORAD AGENA D DEB SSO 2025-07-13 20:24:45 0.0002254208 37.0 (m) DEBRIS
FENGYUN 1C DEB SSO 2024-11-12 16:46:24 0.0001755167 454.0 (m) DEBRIS
SL-14 R/B LEO 2024-09-30 22:43:55 0.002217715 118.0 (m) ROCKET BODY
SL-24 R/B SSO 2024-06-05 10:25:44 0.0001131107 368.0 (m) ROCKET BODY

Associated space launch

Navigation satellite providing location information for the Tsiklon-B navigation system

COSMOS 1275 DEB was lifted into orbit during the mission ‘Kosmos-3M | Parus 27’, on board a Kosmos-3M space rocket.

The launch took place on June 4, 1981, 3:41 p.m. from 132/2.

For more information about the launch, click the button.

Launch to space Kosmos-3M | Parus 27
Kosmos-3M | Parus 27

Agency: N/A

Status: Launch Successful

Launch date: June 4, 1981, 3:41 p.m. UTC

Rocket: Kosmos-3M

Launch pad: 132/2

Location: Plesetsk Cosmodrome, Russian Federation

...

Latest news about this satellite

There are no fresh news available about this satellite. Check back as we update our databases every day.


Newsletter sign-up

Weekly statistics, charts and insights to help you stay on top of the space industry.